Weather History for KOQT - July, 2013

Change the Weather History Date:

Saturday, July 27, 2013

  Actual Average (KTYS) Record (KTYS)
Temperature  
Mean Temperature 76 °F 78 °F  
Max Temperature 82 °F 88 °F 103 °F (1952)
Min Temperature 70 °F 69 °F 56 °F (1911)
Degree Days  
Heating Degree Days 0 0  
Month to date heating degree days 0  
Since 1 June heating degree days 4  
Since 1 July heating degree days 0  
Cooling Degree Days 11 14  
Month to date cooling degree days 368  
Year to date cooling degree days 835  
Since 1 June cooling degree days 673  
Growing Degree Days 26 (Base 50)    
Moisture  
Dew Point 68 °F    
Average Humidity 79    
Maximum Humidity 94    
Minimum Humidity 58    
Precipitation  
Precipitation 0.08 in 0.15 in 1.98 in (1882)
Month to date precipitation 4.51  
Year to date precipitation 29.76  
Snow  
Snow 0.00 in 0.00 in - ()
Month to date snowfall 0.0  
Since 1 June snowfall 0.0  
Since 1 July snowfall 0.0  
Snow Depth -    
Sea Level Pressure  
Sea Level Pressure 29.94 in    
Wind  
Wind Speed 1 mph (SW)    
Max Wind Speed 7 mph    
Max Gust Speed -    
Visibility 9 miles    
Events Rain    
T = Trace of Precipitation, MM = Missing Value Source: NWS Daily Summary

Daily Weather History Graph

Daily Weather History Graph

Search for Another Location

Airport or City:

Trip Planner

Search our weather history database for the weather conditions in past years. The results will help you decide how hot, cold, wet, or windy it might be!

Date:

Astronomy

Jul. 27, 2013 Rise Set
Actual Time 6:40 AM EDT 8:45 PM EDT
Civil Twilight 6:11 AM EDT 9:14 PM EDT
Nautical Twilight 5:36 AM EDT 9:49 PM EDT
Astronomical Twilight 4:59 AM EDT 10:26 PM EDT
Moon 11:46 PM EDT (7/27) 12:07 PM EDT (7/27)
Length of Visible Light 15h 02m
Length of Day
14h 05m
Waning Gibbous, 71% of the Moon is Illuminated
Jul 27
Waning Gibbous
Jul 29
Last Quarter
Aug 6
New
Aug 14
First Quarter
Aug 20
Full

Hourly Weather History & Observations

Time (EDT) Temp. Heat Index Dew Point Humidity Pressure Visibility Wind Dir Wind Speed Gust Speed Precip Events Conditions
12:53 AM 73.0 °F - 69.1 °F 87% 29.99 in 10.0 mi Calm Calm - N/A   Clear
1:53 AM 72.0 °F - 69.1 °F 91% 29.97 in 10.0 mi Calm Calm - N/A   Scattered Clouds
2:53 AM 72.0 °F - 69.1 °F 91% 29.97 in 10.0 mi Calm Calm - N/A   Scattered Clouds
3:53 AM 71.1 °F - 68.0 °F 90% 29.94 in 10.0 mi Calm Calm - N/A   Partly Cloudy
4:53 AM 71.1 °F - 69.1 °F 93% 29.94 in 10.0 mi Calm Calm - N/A   Partly Cloudy
5:53 AM 71.1 °F - 68.0 °F 90% 29.94 in 10.0 mi Calm Calm - N/A   Mostly Cloudy
6:53 AM 70.0 °F - 66.9 °F 90% 29.96 in 10.0 mi Calm Calm - N/A   Clear
7:53 AM 71.1 °F - 68.0 °F 90% 29.96 in 10.0 mi Calm Calm - N/A   Partly Cloudy
8:53 AM 73.0 °F - 68.0 °F 84% 29.96 in 10.0 mi Variable 3.5 mph - 0.00 in   Partly Cloudy
9:53 AM 75.0 °F - 68.0 °F 79% 29.96 in 10.0 mi South 4.6 mph - N/A   Clear
10:53 AM 75.0 °F - 68.0 °F 79% 29.96 in 10.0 mi Calm Calm - N/A   Overcast
11:23 AM 73.4 °F - 69.8 °F 88% 30.01 in 2.5 mi West 6.9 mph - 0.00 in Rain Light Rain
11:30 AM 73.4 °F - 71.6 °F 94% 30.01 in 1.0 mi Calm Calm - 0.07 in Rain Light Rain
11:34 AM 73.4 °F - 69.8 °F 88% 30.01 in 2.5 mi Calm Calm - 0.08 in Rain Light Rain
11:41 AM 73.4 °F - 69.8 °F 88% 30.01 in 10.0 mi Calm Calm - 0.08 in   Mostly Cloudy
11:53 AM 75.0 °F - 68.0 °F 79% 29.97 in 10.0 mi Calm Calm - 0.08 in   Mostly Cloudy
12:53 PM 75.0 °F - 69.1 °F 82% 29.95 in 10.0 mi West 5.8 mph - 0.00 in   Scattered Clouds
1:53 PM 78.1 °F - 64.9 °F 64% 29.93 in 10.0 mi Variable 3.5 mph - N/A   Scattered Clouds
2:53 PM 80.1 °F 82.1 °F 66.0 °F 62% 29.92 in 10.0 mi South 3.5 mph - N/A   Scattered Clouds
3:53 PM 82.0 °F 84.1 °F 66.0 °F 58% 29.88 in 10.0 mi Calm Calm - N/A   Scattered Clouds
4:53 PM 80.1 °F 82.3 °F 66.9 °F 64% 29.89 in 10.0 mi WSW 3.5 mph - N/A   Mostly Cloudy
5:53 PM 82.0 °F 84.1 °F 66.0 °F 58% 29.87 in 10.0 mi Variable 4.6 mph - N/A   Scattered Clouds
6:20 PM 80.6 °F 83.2 °F 68.0 °F 65% 29.92 in 10.0 mi South 4.6 mph - N/A   Mostly Cloudy
6:28 PM 80.6 °F 82.7 °F 66.2 °F 61% 29.91 in 10.0 mi South 4.6 mph - N/A   Scattered Clouds
6:53 PM 81.0 °F 83.3 °F 66.9 °F 62% 29.86 in 10.0 mi SSW 4.6 mph - N/A   Partly Cloudy
7:53 PM 79.0 °F - 66.0 °F 64% 29.88 in 10.0 mi Calm Calm - N/A   Clear
8:53 PM 78.1 °F - 66.9 °F 68% 29.89 in 10.0 mi Calm Calm - N/A   Mostly Cloudy
9:53 PM 75.0 °F - 69.1 °F 82% 29.90 in 10.0 mi Calm Calm - N/A   Clear
10:53 PM 75.9 °F - 69.1 °F 79% 29.91 in 10.0 mi Calm Calm - N/A   Mostly Cloudy
11:53 PM 73.0 °F - 69.1 °F 87% 29.92 in 10.0 mi Calm Calm - N/A   Mostly Cloudy